Big Rapids, MI

9:09 PM EST on December 17, 2017 (GMT -0500)
Roben-Hood

Weather History for KRQB - March, 2013

Change the Weather History Date:

Monday, March 25, 2013

  Actual Average Record
Temperature  
Mean Temperature 32 °F -  
Max Temperature 37 °F 46 °F 74 °F (1976)
Min Temperature 28 °F 22 °F -5 °F (1974)
Degree Days  
Heating Degree Days 32    
Moisture  
Dew Point 22 °F    
Average Humidity 66    
Maximum Humidity 75    
Minimum Humidity 52    
Precipitation  
Precipitation 0.00 in - - ()
Sea Level Pressure  
Sea Level Pressure 29.79 in    
Wind  
Wind Speed 10 mph (North)    
Max Wind Speed 16 mph    
Max Gust Speed 25 mph    
Visibility 10 miles    
Events Snow    
Averages and records for this station are not official NWS values.
T = Trace of Precipitation, MM = Missing Value Source: NWS Daily Summary

Daily Weather History Graph

Daily Weather History Graph

Search for Another Location

Airport or City:

Trip Planner

Search our weather history database for the weather conditions in past years. The results will help you decide how hot, cold, wet, or windy it might be!

Date:

Astronomy

Mar. 25, 2013 Rise Set
Actual Time 7:35 AM EDT 8:00 PM EDT
Civil Twilight 7:06 AM EDT 8:29 PM EDT
Nautical Twilight 6:33 AM EDT 9:03 PM EDT
Astronomical Twilight 5:58 AM EDT 9:38 PM EDT
Moon 6:29 PM EDT (3/25) 6:21 AM EDT (3/25)
Length of Visible Light 13h 22m
Length of Day
12h 25m
Waxing Gibbous, 96% of the Moon is Illuminated
Mar 25
Waxing Gibbous
Mar 27
Full
Apr 3
Last Quarter
Apr 10
New
Apr 18
First Quarter

Hourly Weather History & Observations

Time (EDT) Temp. Windchill Dew Point Humidity Pressure Visibility Wind Dir Wind Speed Gust Speed Precip Events Conditions
12:14 AM 31.5 °F 22.9 °F 19.0 °F 60% 29.73 in 10.0 mi NNE 10.4 mph - N/A   Overcast
12:35 AM 31.1 °F 24.5 °F 18.7 °F 60% 29.73 in 10.0 mi NNE 6.9 mph - N/A   Overcast
12:55 AM 30.9 °F 23.5 °F 18.9 °F 61% 29.73 in 10.0 mi NNE 8.1 mph - N/A   Overcast
1:15 AM 30.2 °F 21.3 °F 19.0 °F 63% 29.74 in 10.0 mi NNE 10.4 mph - N/A   Mostly Cloudy
1:35 AM 29.8 °F 21.5 °F 19.0 °F 64% 29.73 in 10.0 mi NNE 9.2 mph - N/A   Scattered Clouds
1:55 AM 29.3 °F 20.8 °F 19.2 °F 66% 29.74 in 10.0 mi NNE 9.2 mph - N/A   Scattered Clouds
2:15 AM 29.3 °F 22.3 °F 19.4 °F 67% 29.73 in 10.0 mi NNE 6.9 mph - N/A   Scattered Clouds
2:35 AM 29.3 °F 20.8 °F 19.4 °F 67% 29.73 in 10.0 mi NNE 9.2 mph - N/A   Scattered Clouds
2:55 AM 29.3 °F 20.8 °F 19.8 °F 68% 29.73 in 10.0 mi NNE 9.2 mph - N/A   Clear
3:15 AM 29.3 °F 19.6 °F 19.9 °F 68% 29.73 in 10.0 mi NNE 11.5 mph 18.4 mph N/A   Clear
3:35 AM 29.3 °F 20.8 °F 20.1 °F 69% 29.72 in 10.0 mi NNE 9.2 mph 20.7 mph N/A   Clear
3:55 AM 29.3 °F 20.8 °F 20.3 °F 69% 29.72 in 10.0 mi NNE 9.2 mph 16.1 mph N/A   Clear
4:15 AM 29.8 °F 20.9 °F 20.8 °F 69% 29.71 in 10.0 mi NE 10.4 mph - N/A   Mostly Cloudy
4:35 AM 30.0 °F 20.0 °F 21.2 °F 70% 29.70 in 10.0 mi NNE 12.7 mph 18.4 mph N/A   Overcast
4:55 AM 29.3 °F 19.6 °F 21.2 °F 72% 29.70 in 10.0 mi NNE 11.5 mph 20.7 mph N/A   Mostly Cloudy
5:15 AM 29.5 °F 18.8 °F 21.2 °F 71% 29.70 in 10.0 mi NNE 13.8 mph 19.6 mph N/A   Clear
5:35 AM 29.3 °F 18.6 °F 21.2 °F 72% 29.69 in 10.0 mi NNE 13.8 mph 18.4 mph N/A   Clear
5:54 AM 29.1 °F 19.4 °F 21.2 °F 72% 29.69 in 10.0 mi NNE 11.5 mph 17.3 mph N/A   Clear
6:15 AM 29.1 °F 19.4 °F 21.6 °F 73% 29.70 in 10.0 mi NNE 11.5 mph 17.3 mph N/A   Clear
6:35 AM 28.9 °F 19.8 °F 21.7 °F 74% 29.70 in 10.0 mi NNE 10.4 mph 20.7 mph N/A   Scattered Clouds
6:54 AM 29.3 °F 20.2 °F 22.1 °F 75% 29.70 in 10.0 mi NNE 10.4 mph - N/A   Mostly Cloudy
7:15 AM 29.8 °F 20.3 °F 22.1 °F 73% 29.71 in 10.0 mi NNE 11.5 mph 18.4 mph N/A   Overcast
7:35 AM 30.2 °F 20.8 °F 22.3 °F 72% 29.71 in 10.0 mi NNE 11.5 mph 18.4 mph N/A   Overcast
7:55 AM 30.2 °F 21.3 °F 22.3 °F 72% 29.72 in 10.0 mi NNE 10.4 mph 17.3 mph N/A   Overcast
8:15 AM 30.6 °F 21.8 °F 22.3 °F 71% 29.72 in 10.0 mi North 10.4 mph 19.6 mph N/A   Overcast
8:35 AM 30.7 °F 21.4 °F 22.6 °F 72% 29.73 in 10.0 mi NNE 11.5 mph - N/A   Overcast
8:55 AM 30.9 °F 21.7 °F 22.8 °F 72% 29.73 in 10.0 mi North 11.5 mph 17.3 mph N/A   Overcast
9:15 AM 31.3 °F 22.7 °F 23.0 °F 71% 29.74 in 10.0 mi North 10.4 mph - N/A   Overcast
9:35 AM 31.6 °F 23.7 °F 23.0 °F 70% 29.74 in 10.0 mi NNE 9.2 mph 17.3 mph N/A   Overcast
9:55 AM 32.0 °F 24.2 °F 23.0 °F 69% 29.74 in 10.0 mi North 9.2 mph - N/A   Overcast
10:15 AM 32.0 °F 24.2 °F 23.5 °F 71% 29.75 in 10.0 mi North 9.2 mph - N/A   Overcast
10:34 AM 32.5 °F 23.7 °F 23.5 °F 69% 29.75 in 10.0 mi North 11.5 mph 18.4 mph N/A   Overcast
10:55 AM 32.9 °F 23.7 °F 23.7 °F 69% 29.76 in 10.0 mi North 12.7 mph - N/A   Overcast
11:14 AM 33.1 °F 24.4 °F 23.7 °F 68% 29.76 in 10.0 mi North 11.5 mph 17.3 mph N/A   Overcast
11:35 AM 33.3 °F 23.7 °F 24.1 °F 69% 29.76 in 10.0 mi North 13.8 mph 17.3 mph N/A   Overcast
11:55 AM 33.3 °F 23.7 °F 24.6 °F 71% 29.76 in 10.0 mi North 13.8 mph 18.4 mph N/A   Overcast
12:15 PM 33.3 °F 23.2 °F 24.6 °F 71% 29.77 in 10.0 mi North 15.0 mph 20.7 mph N/A Snow Light Snow
12:35 PM 33.8 °F 23.5 °F 24.6 °F 69% 29.77 in 10.0 mi North 16.1 mph - N/A   Overcast
12:55 PM 33.8 °F 23.5 °F 24.4 °F 69% 29.77 in 10.0 mi North 16.1 mph 25.3 mph N/A   Overcast
1:15 PM 34.3 °F 25.5 °F 24.4 °F 67% 29.78 in 10.0 mi North 12.7 mph - N/A   Overcast
1:35 PM 34.7 °F 27.5 °F 24.3 °F 66% 29.78 in 10.0 mi North 9.2 mph - N/A   Overcast
1:55 PM 34.9 °F 25.7 °F 23.5 °F 63% 29.79 in 10.0 mi North 13.8 mph 18.4 mph N/A   Overcast
2:15 PM 34.9 °F 25.7 °F 23.0 °F 62% 29.79 in 10.0 mi North 13.8 mph 19.6 mph N/A   Overcast
2:35 PM 36.0 °F 28.0 °F 23.2 °F 60% 29.79 in 10.0 mi North 11.5 mph - N/A   Overcast
2:55 PM 36.3 °F 28.9 °F 22.1 °F 56% 29.79 in 10.0 mi North 10.4 mph 19.6 mph N/A   Overcast
3:15 PM 36.5 °F 29.2 °F 21.2 °F 54% 29.79 in 10.0 mi North 10.4 mph 16.1 mph N/A   Overcast
3:35 PM 36.9 °F 28.2 °F 21.4 °F 54% 29.79 in 10.0 mi North 13.8 mph 17.3 mph N/A   Overcast
3:55 PM 37.4 °F 29.3 °F 21.4 °F 52% 29.79 in 10.0 mi NNE 12.7 mph 17.3 mph N/A   Overcast
4:15 PM 37.0 °F 29.8 °F 22.8 °F 56% 29.80 in 10.0 mi NNE 10.4 mph - N/A   Overcast
4:35 PM 37.4 °F 30.3 °F 21.6 °F 53% 29.80 in 10.0 mi NNE 10.4 mph 19.6 mph N/A   Overcast
4:55 PM 37.4 °F 29.8 °F 22.1 °F 54% 29.81 in 10.0 mi NNW 11.5 mph - N/A   Overcast
5:15 PM 36.7 °F 28.9 °F 23.5 °F 59% 29.82 in 10.0 mi North 11.5 mph 16.1 mph N/A   Overcast
5:35 PM 36.5 °F 27.4 °F 23.4 °F 59% 29.83 in 10.0 mi NNW 15.0 mph 19.6 mph N/A   Overcast
5:55 PM 36.7 °F 28.4 °F 23.9 °F 60% 29.83 in 10.0 mi North 12.7 mph - N/A   Overcast
6:15 PM 36.7 °F 28.9 °F 23.9 °F 60% 29.84 in 10.0 mi North 11.5 mph - N/A   Overcast
6:35 PM 36.5 °F 27.8 °F 23.9 °F 60% 29.85 in 10.0 mi North 13.8 mph 20.7 mph N/A   Overcast
6:55 PM 36.1 °F 26.9 °F 23.5 °F 60% 29.86 in 10.0 mi NNW 15.0 mph - N/A   Overcast
7:15 PM 35.6 °F 26.6 °F 23.4 °F 61% 29.87 in 10.0 mi North 13.8 mph 19.6 mph N/A   Mostly Cloudy
7:35 PM 35.4 °F 27.3 °F 23.7 °F 62% 29.88 in 10.0 mi North 11.5 mph - N/A   Mostly Cloudy
7:55 PM 35.2 °F 28.8 °F 23.9 °F 63% 29.89 in 10.0 mi North 8.1 mph - N/A   Overcast
8:15 PM 35.1 °F 27.4 °F 24.1 °F 64% 29.90 in 10.0 mi NNW 10.4 mph - N/A   Overcast
8:35 PM 34.7 °F 27.5 °F 24.4 °F 66% 29.91 in 10.0 mi NNW 9.2 mph - N/A   Overcast
8:55 PM 34.7 °F 28.1 °F 23.9 °F 65% 29.92 in 10.0 mi NNW 8.1 mph - N/A   Overcast
9:14 PM 34.7 °F 28.8 °F 23.7 °F 64% 29.92 in 10.0 mi NNW 6.9 mph - N/A   Overcast
9:35 PM 34.3 °F 27.7 °F 23.9 °F 66% 29.93 in 10.0 mi NNW 8.1 mph - N/A   Overcast
9:55 PM 34.3 °F 27.0 °F 23.7 °F 65% 29.94 in 10.0 mi NNW 9.2 mph - N/A   Overcast
10:14 PM 34.3 °F 27.7 °F 23.5 °F 65% 29.94 in 10.0 mi NNW 8.1 mph - N/A   Overcast
10:35 PM 34.3 °F 28.4 °F 23.5 °F 65% 29.95 in 10.0 mi NNW 6.9 mph - N/A   Overcast
10:55 PM 34.3 °F 27.7 °F 23.9 °F 66% 29.95 in 10.0 mi NNW 8.1 mph - N/A   Overcast
11:15 PM 34.2 °F 27.5 °F 24.4 °F 68% 29.95 in 10.0 mi NNW 8.1 mph - N/A   Overcast
11:35 PM 34.0 °F 26.6 °F 24.8 °F 69% 29.96 in 10.0 mi NNW 9.2 mph - N/A   Overcast
11:55 PM 34.0 °F 28.0 °F 25.3 °F 71% 29.96 in 10.0 mi NNW 6.9 mph - N/A   Overcast